TFFRTNCM

Guest
Details From TFFR - Pointe a Pitre Le Raizet
To TNCM - St Maarten - Princess Juliana Intl
Flight Number -
Tags decoded
Created
Modified
Stats Distance 143 nm / 264 km
Max Altitude 0 ft / 0 m
Waypoints 5
Social Downloads 55
Likes 0
Share

Download

Looking for another format? Having issues loading an existing format? Contact us
Advertisement - Login to hide

Notes

Requested: TFFR BIMBO A517 TIKAL TNCM

Route

TFFR BIMBO A517 TIKAL TNCM

ID Type Via Altitude (ft/m) Position (lat/lon) Dist (leg/tot) Name
O TFFR APT - 0 / 0 16.26531 / -61.53181 - / 0 nm Pointe a Pitre Le Raizet
BIMBO FIX - 0 / 0 16.62667 / -61.96028 32 / 32 nm
SKB NDB A517 (AWY-LO) 0 / 0 17.29597 / -62.74328 60 / 93 nm BRADSHAW NDB
TIKAL FIX A517 (AWY-LO) 0 / 0 17.47381 / -62.81800 11 / 104 nm
O TNCM APT - 0 / 0 18.04089 / -63.10897 37 / 142 nm St Maarten - Princess Juliana Intl

Altitude Profile

Advertisement - Login to hide

TFFR

Details ICAO TFFR (PTP)
Name Pointe A Pitre Intl
Region France (Guadeloupe, Martinique, Saint Barthélemy, Saint Martin)
Timezone America/Guadeloupe (UTC-4.0)
Stats Elevation 35 ft / 11 m (AMSL)
Location 16.265500° -61.533000°
Runways 1
Magnetic Variation 15.023° W

METAR

TFFR 251930Z AUTO 11015KT 9999 BKN026 BKN032 BKN052 31/25 Q1015 TEMPO 3000 SHRA FEW012CB BKN018TCU SCT030

Decode

TAF

TAF TAF TFFR 251700Z 2518/2618 11018KT 9999 SCT030 BKN060 TEMPO 2518/2523 3000 SHRA FEW012CB BKN018TCU SCT030 BKN060 PROB30 TEMPO 2518/2520 1400 TSRA BKN012CB BKN018TCU BECMG 2600/2602 08005KT TEMPO 2605/2618 BKN018TCU SCT030 PROB40 TEMPO 2610/2616 3000 SHRA FEW012 BKN015TCU BECMG 2611/2613 11015KT

Decode

Departure Runways

ID Width Length Bearing (true/mag) Surface Threshold Overrun Markings Lighting
12 148 ft / 45 m 10,673 ft / 3,253 m 100.87° / 115.89° ASPHALT 1,309 ft / 399 m 98 ft / 30 m PREC-APP CENTERLINE EDGE THRESHOLD TDZ REIL-OMNI
30 148 ft / 45 m 10,673 ft / 3,253 m 280.87° / 295.90° ASPHALT 978 ft / 298 m 853 ft / 260 m APP CENTERLINE EDGE THRESHOLD TDZ REIL-OMNI

TNCM

Details ICAO TNCM (SXM)
Name Princess Juliana Intl
Region Caribbean Netherlands, Aruba, Curaçao, Sint Maarten
Timezone Unknown
Stats Elevation 14 ft / 4 m (AMSL)
Location 18.040900° -63.108900°
Runways 1
Magnetic Variation 14.503° W

METAR

TNCM 251900Z 09011G22KT 050V110 9999 FEW018 32/27 Q1017 NOSIG

Decode

TAF

TAF TNCM 251605Z 2518/2618 08013KT 9999 FEW016 TEMPO 2518/2524 09010G25KT

Decode

Destination Runways

ID Width Length Bearing (true/mag) Surface Threshold Overrun Markings Lighting
10 148 ft / 45 m 7,553 ft / 2,302 m 81.44° / 95.94° ASPHALT 331 ft / 101 m 164 ft / 50 m PREC-APP EDGE THRESHOLD REIL-OMNI
28 148 ft / 45 m 7,553 ft / 2,302 m 261.45° / 275.95° ASPHALT 0 ft / 0 m 200 ft / 61 m APP EDGE THRESHOLD

Popular Alternatives